Tabellarische Ansicht des 24.11.2007


Die einzelnen Werte des Tages

Uhrzeit Temperatur Luftdruck Luftfeuchte Wind Hi-Wind Taupunkt THW Index Wind Chill Heat Index Solar- strahlung Regen

00:00

4.5 C

1020.3 hpa

83 %

9.7 km/h aus 103

19.3 km/h aus WNW

1.9 C

2.1 C

2.2 C

4.4 C

0 W/m

0.00 mm

00:05

4.4 C

1020.3 hpa

82 %

9.7 km/h aus 108

20.9 km/h aus WNW

1.6 C

1.8 C

2.0 C

4.2 C

0 W/m

0.00 mm

00:10

4.3 C

1020.3 hpa

83 %

8.0 km/h aus 112

16.1 km/h aus W

1.7 C

2.2 C

2.3 C

4.2 C

0 W/m

0.00 mm

00:15

4.3 C

1020.7 hpa

83 %

8.0 km/h aus 111

17.7 km/h aus WNW

1.6 C

2.2 C

2.3 C

4.2 C

0 W/m

0.00 mm

00:20

4.2 C

1020.7 hpa

83 %

8.0 km/h aus 109

16.1 km/h aus W

1.5 C

2.1 C

2.2 C

4.1 C

0 W/m

0.00 mm

00:25

4.1 C

1020.7 hpa

84 %

9.7 km/h aus 110

20.9 km/h aus WNW

1.6 C

1.5 C

1.6 C

3.9 C

0 W/m

0.00 mm

00:30

3.9 C

1020.8 hpa

84 %

11.3 km/h aus 111

20.9 km/h aus WNW

1.5 C

1.1 C

1.2 C

3.8 C

0 W/m

0.00 mm

00:35

3.8 C

1020.8 hpa

84 %

6.4 km/h aus 112

12.9 km/h aus W

1.4 C

2.1 C

2.2 C

3.7 C

0 W/m

0.00 mm

00:40

3.8 C

1020.8 hpa

85 %

11.3 km/h aus 109

17.7 km/h aus NW

1.5 C

0.8 C

0.9 C

3.7 C

0 W/m

0.00 mm

00:45

3.7 C

1021.1 hpa

85 %

8.0 km/h aus 105

16.1 km/h aus WNW

1.4 C

1.5 C

1.6 C

3.6 C

0 W/m

0.00 mm

00:50

3.6 C

1021.1 hpa

86 %

9.7 km/h aus 106

20.9 km/h aus WNW

1.5 C

1.0 C

1.1 C

3.5 C

0 W/m

0.00 mm

00:55

3.6 C

1021.1 hpa

86 %

8.0 km/h aus 112

14.5 km/h aus W

1.4 C

1.3 C

1.4 C

3.4 C

0 W/m

0.00 mm

01:00

3.5 C

1021.0 hpa

86 %

6.4 km/h aus 110

12.9 km/h aus WNW

1.4 C

1.8 C

1.9 C

3.4 C

0 W/m

0.00 mm

01:05

3.4 C

1021.0 hpa

86 %

4.8 km/h aus 112

9.7 km/h aus NW

1.3 C

2.2 C

2.3 C

3.3 C

0 W/m

0.00 mm

01:10

3.3 C

1021.0 hpa

87 %

6.4 km/h aus 113

11.3 km/h aus W

1.4 C

1.6 C

1.7 C

3.2 C

0 W/m

0.00 mm

01:15

3.3 C

1021.2 hpa

87 %

6.4 km/h aus 107

11.3 km/h aus NW

1.3 C

1.5 C

1.6 C

3.2 C

0 W/m

0.00 mm

01:20

3.2 C

1021.2 hpa

87 %

6.4 km/h aus 108

9.7 km/h aus NW

1.3 C

1.4 C

1.6 C

3.1 C

0 W/m

0.00 mm

01:25

3.2 C

1021.2 hpa

87 %

4.8 km/h aus 107

9.7 km/h aus NW

1.2 C

2.0 C

2.1 C

3.1 C

0 W/m

0.00 mm

01:30

3.1 C

1021.2 hpa

87 %

4.8 km/h aus 111

8.0 km/h aus W

1.2 C

1.9 C

2.1 C

3.0 C

0 W/m

0.00 mm

01:35

3.1 C

1021.2 hpa

87 %

4.8 km/h aus 114

11.3 km/h aus WNW

1.1 C

1.8 C

1.9 C

2.9 C

0 W/m

0.00 mm

01:40

2.9 C

1021.2 hpa

87 %

4.8 km/h aus 114

9.7 km/h aus NW

1.0 C

1.7 C

1.8 C

2.8 C

0 W/m

0.00 mm

01:45

2.9 C

1021.3 hpa

87 %

4.8 km/h aus 113

9.7 km/h aus W

0.9 C

1.7 C

1.8 C

2.8 C

0 W/m

0.00 mm

01:50

2.8 C

1021.3 hpa

87 %

4.8 km/h aus 109

9.7 km/h aus NW

0.9 C

1.6 C

1.7 C

2.7 C

0 W/m

0.00 mm

01:55

2.8 C

1021.3 hpa

87 %

4.8 km/h aus 112

9.7 km/h aus W

0.8 C

1.6 C

1.7 C

2.7 C

0 W/m

0.00 mm

02:00

2.7 C

1021.4 hpa

87 %

4.8 km/h aus 113

9.7 km/h aus WNW

0.7 C

1.4 C

1.5 C

2.6 C

0 W/m

0.00 mm

02:05

2.6 C

1021.4 hpa

87 %

4.8 km/h aus 107

9.7 km/h aus W

0.7 C

1.3 C

1.4 C

2.5 C

0 W/m

0.00 mm

02:10

2.6 C

1021.4 hpa

88 %

4.8 km/h aus 111

9.7 km/h aus WNW

0.8 C

1.3 C

1.4 C

2.5 C

0 W/m

0.00 mm

02:15

2.6 C

1021.7 hpa

88 %

6.4 km/h aus 112

11.3 km/h aus W

0.8 C

0.7 C

0.8 C

2.5 C

0 W/m

0.00 mm

02:20

2.5 C

1021.7 hpa

88 %

6.4 km/h aus 109

9.7 km/h aus WNW

0.7 C

0.7 C

0.7 C

2.4 C

0 W/m

0.00 mm

02:25

2.4 C

1021.7 hpa

88 %

4.8 km/h aus 112

6.4 km/h aus WNW

0.7 C

1.2 C

1.3 C

2.4 C

0 W/m

0.00 mm

02:30

2.4 C

1021.8 hpa

88 %

4.8 km/h aus 114

11.3 km/h aus W

0.7 C

1.2 C

1.3 C

2.4 C

0 W/m

0.00 mm

02:35

2.4 C

1021.8 hpa

88 %

4.8 km/h aus 113

8.0 km/h aus WNW

0.6 C

1.2 C

1.2 C

2.3 C

0 W/m

0.00 mm

02:40

2.3 C

1021.8 hpa

88 %

4.8 km/h aus 110

8.0 km/h aus WNW

0.5 C

1.1 C

1.2 C

2.3 C

0 W/m

0.00 mm

02:45

2.3 C

1022.0 hpa

88 %

4.8 km/h aus 106

8.0 km/h aus WNW

0.5 C

1.1 C

1.1 C

2.2 C

0 W/m

0.00 mm

02:50

2.2 C

1022.0 hpa

88 %

4.8 km/h aus 112

9.7 km/h aus WNW

0.4 C

0.9 C

1.0 C

2.2 C

0 W/m

0.00 mm

02:55

2.2 C

1022.0 hpa

88 %

4.8 km/h aus 109

9.7 km/h aus WNW

0.4 C

0.9 C

1.0 C

2.2 C

0 W/m

0.00 mm

03:00

2.2 C

1022.2 hpa

89 %

4.8 km/h aus 109

9.7 km/h aus WNW

0.5 C

0.9 C

0.9 C

2.1 C

0 W/m

0.00 mm

03:05

2.2 C

1022.2 hpa

89 %

6.4 km/h aus 114

11.3 km/h aus WNW

0.6 C

0.3 C

0.4 C

2.2 C

0 W/m

0.00 mm

03:10

2.2 C

1022.2 hpa

89 %

6.4 km/h aus 110

9.7 km/h aus WNW

0.6 C

0.3 C

0.4 C

2.2 C

0 W/m

0.00 mm

03:15

2.3 C

1022.3 hpa

89 %

6.4 km/h aus 107

9.7 km/h aus WNW

0.7 C

0.4 C

0.4 C

2.2 C

0 W/m

0.00 mm

03:20

2.3 C

1022.3 hpa

89 %

6.4 km/h aus 111

11.3 km/h aus WNW

0.7 C

0.4 C

0.5 C

2.3 C

0 W/m

0.00 mm

03:25

2.3 C

1022.3 hpa

89 %

4.8 km/h aus 108

11.3 km/h aus WNW

0.7 C

1.1 C

1.2 C

2.3 C

0 W/m

0.00 mm

03:30

2.3 C

1022.4 hpa

89 %

6.4 km/h aus 102

11.3 km/h aus WNW

0.7 C

0.4 C

0.5 C

2.3 C

0 W/m

0.00 mm

03:35

2.3 C

1022.4 hpa

89 %

6.4 km/h aus 105

9.7 km/h aus W

0.7 C

0.4 C

0.5 C

2.3 C

0 W/m

0.00 mm

03:40

2.3 C

1022.4 hpa

88 %

6.4 km/h aus 110

11.3 km/h aus W

0.5 C

0.4 C

0.5 C

2.3 C

0 W/m

0.00 mm

03:45

2.3 C

1022.5 hpa

88 %

6.4 km/h aus 116

11.3 km/h aus WNW

0.5 C

0.4 C

0.5 C

2.3 C

0 W/m

0.00 mm

03:50

2.3 C

1022.5 hpa

88 %

4.8 km/h aus 105

9.7 km/h aus WNW

0.5 C

1.1 C

1.1 C

2.2 C

0 W/m

0.00 mm

03:55

2.3 C

1022.5 hpa

88 %

4.8 km/h aus 108

9.7 km/h aus W

0.5 C

1.1 C

1.1 C

2.2 C

0 W/m

0.00 mm

04:00

2.3 C

1022.6 hpa

88 %

4.8 km/h aus 110

9.7 km/h aus WNW

0.5 C

1.1 C

1.1 C

2.2 C

0 W/m

0.00 mm

04:05

2.3 C

1022.6 hpa

88 %

4.8 km/h aus 112

8.0 km/h aus NW

0.5 C

1.1 C

1.1 C

2.2 C

0 W/m

0.00 mm

04:10

2.2 C

1022.6 hpa

87 %

4.8 km/h aus 107

6.4 km/h aus WNW

0.3 C

0.9 C

1.0 C

2.1 C

0 W/m

0.00 mm

04:15

2.2 C

1022.6 hpa

87 %

3.2 km/h aus 110

9.7 km/h aus WSW

0.2 C

1.7 C

1.8 C

2.1 C

0 W/m

0.00 mm

04:20

2.2 C

1022.6 hpa

87 %

3.2 km/h aus 112

6.4 km/h aus WNW

0.2 C

1.7 C

1.8 C

2.1 C

0 W/m

0.00 mm

04:25

2.1 C

1022.6 hpa

87 %

3.2 km/h aus 109

6.4 km/h aus W

0.2 C

1.6 C

1.7 C

2.0 C

0 W/m

0.00 mm

04:30

2.1 C

1022.7 hpa

87 %

3.2 km/h aus 116

4.8 km/h aus W

0.1 C

1.6 C

1.7 C

1.9 C

0 W/m

0.00 mm

04:35

2.1 C

1022.7 hpa

87 %

3.2 km/h aus 112

6.4 km/h aus WNW

0.1 C

1.6 C

1.7 C

1.9 C

0 W/m

0.00 mm

04:40

2.0 C

1022.7 hpa

87 %

1.6 km/h aus 113

4.8 km/h aus W

0.1 C

1.9 C

2.0 C

1.9 C

0 W/m

0.00 mm

04:45

1.9 C

1022.9 hpa

87 %

3.2 km/h aus 113

4.8 km/h aus W

0.0 C

1.4 C

1.6 C

1.8 C

0 W/m

0.00 mm

04:50

1.8 C

1022.9 hpa

87 %

1.6 km/h aus 112

4.8 km/h aus W

-0.1 C

1.7 C

1.8 C

1.7 C

0 W/m

0.00 mm

04:55

1.8 C

1022.9 hpa

87 %

3.2 km/h aus 107

8.0 km/h aus WNW

-0.2 C

1.3 C

1.4 C

1.7 C

0 W/m

0.00 mm

05:00

1.7 C

1022.9 hpa

86 %

3.2 km/h aus 114

6.4 km/h aus WNW

-0.4 C

1.2 C

1.3 C

1.6 C

0 W/m

0.00 mm

05:05

1.7 C

1022.9 hpa

87 %

1.6 km/h aus 110

4.8 km/h aus WSW

-0.3 C

1.6 C

1.7 C

1.6 C

0 W/m

0.00 mm

05:10

1.6 C

1022.9 hpa

87 %

1.6 km/h aus 107

3.2 km/h aus WSW

-0.3 C

1.5 C

1.6 C

1.5 C

0 W/m

0.00 mm

05:15

1.6 C

1023.0 hpa

87 %

1.6 km/h aus 109

4.8 km/h aus WSW

-0.4 C

1.4 C

1.6 C

1.4 C

0 W/m

0.00 mm

05:20

1.5 C

1023.0 hpa

88 %

1.6 km/h aus 112

3.2 km/h aus WSW

-0.3 C

1.4 C

1.5 C

1.4 C

0 W/m

0.00 mm

05:25

1.4 C

1023.0 hpa

88 %

0.0 km/h aus 111

3.2 km/h aus WSW

-0.4 C

1.3 C

1.4 C

1.3 C

0 W/m

0.00 mm

05:30

1.4 C

1023.1 hpa

88 %

1.6 km/h aus 109

3.2 km/h aus WSW

-0.4 C

1.3 C

1.4 C

1.3 C

0 W/m

0.00 mm

05:35

1.3 C

1023.1 hpa

89 %

0.0 km/h aus 110

3.2 km/h aus WSW

-0.3 C

1.2 C

1.3 C

1.2 C

0 W/m

0.00 mm

05:40

1.3 C

1023.1 hpa

89 %

1.6 km/h aus 110

3.2 km/h aus WSW

-0.3 C

1.2 C

1.3 C

1.2 C

0 W/m

0.00 mm

05:45

1.3 C

1023.4 hpa

89 %

0.0 km/h aus 109

1.6 km/h aus WSW

-0.3 C

1.2 C

1.3 C

1.2 C

0 W/m

0.00 mm

05:50

1.3 C

1023.4 hpa

89 %

0.0 km/h aus 108

3.2 km/h aus WSW

-0.3 C

1.2 C

1.3 C

1.2 C

0 W/m

0.00 mm

05:55

1.3 C

1023.4 hpa

90 %

0.0 km/h aus 107

3.2 km/h aus WSW

-0.1 C

1.2 C

1.3 C

1.2 C

0 W/m

0.00 mm

06:00

1.3 C

1023.4 hpa

89 %

1.6 km/h aus 113

3.2 km/h aus WSW

-0.3 C

1.2 C

1.3 C

1.2 C

0 W/m

0.00 mm

06:05

1.3 C

1023.4 hpa

90 %

1.6 km/h aus 112

4.8 km/h aus NW

-0.1 C

1.2 C

1.3 C

1.2 C

0 W/m

0.00 mm

06:10

1.3 C

1023.4 hpa

90 %

3.2 km/h aus 111

4.8 km/h aus WNW

-0.1 C

0.8 C

0.9 C

1.2 C

0 W/m

0.00 mm

06:15

1.3 C

1023.4 hpa

90 %

3.2 km/h aus 110

6.4 km/h aus W

-0.1 C

0.8 C

0.9 C

1.2 C

0 W/m

0.00 mm

06:20

1.3 C

1023.4 hpa

91 %

3.2 km/h aus 108

6.4 km/h aus W

0.0 C

0.8 C

0.9 C

1.3 C

0 W/m

0.00 mm

06:25

1.4 C

1023.4 hpa

91 %

1.6 km/h aus 112

4.8 km/h aus W

0.1 C

1.3 C

1.4 C

1.3 C

0 W/m

0.00 mm

06:30

1.4 C

1023.4 hpa

91 %

3.2 km/h aus 110

6.4 km/h aus W

0.1 C

0.9 C

0.9 C

1.3 C

0 W/m

0.00 mm

06:35

1.5 C

1023.4 hpa

91 %

4.8 km/h aus 111

8.0 km/h aus W

0.2 C

0.2 C

0.2 C

1.4 C

0 W/m

0.00 mm

06:40

1.5 C

1023.4 hpa

91 %

3.2 km/h aus 107

6.4 km/h aus WSW

0.2 C

1.0 C

1.1 C

1.4 C

0 W/m

0.00 mm

06:45

1.5 C

1023.4 hpa

91 %

3.2 km/h aus 111

6.4 km/h aus WSW

0.2 C

1.0 C

1.1 C

1.4 C

0 W/m

0.00 mm

06:50

1.5 C

1023.4 hpa

91 %

0.0 km/h aus 113

3.2 km/h aus W

0.2 C

1.4 C

1.5 C

1.4 C

0 W/m

0.00 mm

06:55

1.4 C

1023.4 hpa

91 %

0.0 km/h aus 114

3.2 km/h aus W

0.1 C

1.4 C

1.4 C

1.4 C

0 W/m

0.00 mm

07:00

1.4 C

1023.4 hpa

91 %

0.0 km/h aus 113

1.6 km/h aus W

0.1 C

1.3 C

1.4 C

1.3 C

0 W/m

0.00 mm

07:05

1.3 C

1023.4 hpa

91 %

3.2 km/h aus 104

6.4 km/h aus W

0.0 C

0.8 C

0.9 C

1.3 C

0 W/m

0.00 mm

07:10

1.3 C

1023.4 hpa

91 %

3.2 km/h aus 110

4.8 km/h aus W

0.0 C

0.8 C

0.9 C

1.3 C

0 W/m

0.00 mm

07:15

1.3 C

1023.6 hpa

91 %

0.0 km/h aus 112

1.6 km/h aus W

0.0 C

1.2 C

1.3 C

1.2 C

0 W/m

0.00 mm

07:20

1.2 C

1023.6 hpa

90 %

0.0 km/h aus 114

1.6 km/h aus W

-0.3 C

1.1 C

1.2 C

1.1 C

0 W/m

0.00 mm

07:25

1.1 C

1023.6 hpa

90 %

0.0 km/h aus 113

1.6 km/h aus W

-0.4 C

0.9 C

1.1 C

0.9 C

0 W/m

0.00 mm

07:30

1.0 C

1023.7 hpa

90 %

1.6 km/h aus 109

3.2 km/h aus W

-0.5 C

0.9 C

1.0 C

0.9 C

0 W/m

0.00 mm

07:35

0.8 C

1023.7 hpa

90 %

3.2 km/h aus 114

3.2 km/h aus W

-0.6 C

0.2 C

0.3 C

0.7 C

0 W/m

0.00 mm

07:40

0.7 C

1023.7 hpa

90 %

0.0 km/h aus 116

3.2 km/h aus W

-0.7 C

0.6 C

0.7 C

0.6 C

0 W/m

0.00 mm

07:45

0.6 C

1023.9 hpa

90 %

1.6 km/h aus 115

3.2 km/h aus W

-0.8 C

0.5 C

0.6 C

0.5 C

0 W/m

0.00 mm

07:50

0.5 C

1023.9 hpa

90 %

3.2 km/h aus 111

3.2 km/h aus W

-1.0 C

-0.1 C

0.0 C

0.4 C

0 W/m

0.00 mm

07:55

0.3 C

1023.9 hpa

90 %

1.6 km/h aus 108

3.2 km/h aus W

-1.1 C

0.2 C

0.3 C

0.2 C

0 W/m

0.00 mm

08:00

0.3 C

1024.0 hpa

90 %

1.6 km/h aus 116

3.2 km/h aus W

-1.2 C

0.2 C

0.3 C

0.2 C

0 W/m

0.00 mm

08:05

0.2 C

1024.0 hpa

89 %

1.6 km/h aus 113

4.8 km/h aus W

-1.4 C

0.1 C

0.2 C

0.1 C

0 W/m

0.00 mm

08:10

0.1 C

1024.0 hpa

90 %

1.6 km/h aus 118

4.8 km/h aus W

-1.4 C

0.0 C

0.1 C

0.0 C

0 W/m

0.00 mm

08:15

-0.1 C

1024.3 hpa

90 %

3.2 km/h aus 114

4.8 km/h aus W

-1.5 C

-0.7 C

-0.6 C

-0.1 C

0 W/m

0.00 mm

08:20

-0.2 C

1024.3 hpa

90 %

3.2 km/h aus 117

4.8 km/h aus W

-1.6 C

-0.8 C

-0.8 C

-0.2 C

0 W/m

0.00 mm

08:25

-0.3 C

1024.3 hpa

90 %

3.2 km/h aus 114

4.8 km/h aus W

-1.7 C

-1.0 C

-0.9 C

-0.4 C

0 W/m

0.00 mm

08:30

-0.3 C

1024.4 hpa

90 %

1.6 km/h aus 111

3.2 km/h aus W

-1.8 C

-0.4 C

-0.3 C

-0.4 C

0 W/m

0.00 mm

08:35

-0.4 C

1024.4 hpa

90 %

1.6 km/h aus 111

3.2 km/h aus W

-1.8 C

-0.5 C

-0.4 C

-0.5 C

0 W/m

0.00 mm

08:40

-0.5 C

1024.4 hpa

90 %

3.2 km/h aus 115

4.8 km/h aus W

-1.9 C

-1.2 C

-1.1 C

-0.6 C

0 W/m

0.00 mm

08:45

-0.6 C

1024.5 hpa

90 %

4.8 km/h aus 110

4.8 km/h aus W

-2.0 C

-2.2 C

-2.1 C

-0.7 C

0 W/m

0.00 mm

08:50

-0.6 C

1024.5 hpa

90 %

3.2 km/h aus 113

4.8 km/h aus W

-2.0 C

-1.3 C

-1.2 C

-0.7 C

0 W/m

0.00 mm

08:55

-0.6 C

1024.5 hpa

91 %

3.2 km/h aus 114

4.8 km/h aus W

-1.8 C

-1.3 C

-1.2 C

-0.7 C

0 W/m

0.00 mm

09:00

-0.6 C

1024.4 hpa

91 %

3.2 km/h aus 113

4.8 km/h aus W

-1.8 C

-1.3 C

-1.2 C

-0.7 C

0 W/m

0.00 mm

09:05

-0.5 C

1024.4 hpa

91 %

1.6 km/h aus 113

3.2 km/h aus W

-1.8 C

-0.6 C

-0.5 C

-0.6 C

0 W/m

0.00 mm

09:10

-0.4 C

1024.4 hpa

92 %

1.6 km/h aus 108

3.2 km/h aus W

-1.5 C

-0.4 C

-0.4 C

-0.4 C

0 W/m

0.00 mm

09:15

-0.3 C

1024.4 hpa

92 %

1.6 km/h aus 113

4.8 km/h aus W

-1.5 C

-0.4 C

-0.3 C

-0.4 C

0 W/m

0.00 mm

09:20

-0.2 C

1024.4 hpa

92 %

1.6 km/h aus 111

3.2 km/h aus W

-1.4 C

-0.3 C

-0.2 C

-0.3 C

0 W/m

0.00 mm

09:25

-0.1 C

1024.4 hpa

92 %

3.2 km/h aus 109

4.8 km/h aus W

-1.2 C

-0.7 C

-0.6 C

-0.1 C

0 W/m

0.00 mm

09:30

0.1 C

1024.3 hpa

93 %

3.2 km/h aus 102

4.8 km/h aus W

-0.9 C

-0.6 C

-0.5 C

0.0 C

0 W/m

0.00 mm

09:35

0.2 C

1024.3 hpa

93 %

4.8 km/h aus 112

8.0 km/h aus SSW

-0.8 C

-1.3 C

-1.2 C

0.2 C

0 W/m

0.00 mm

09:40

0.4 C

1024.3 hpa

93 %

8.0 km/h aus 109

11.3 km/h aus SSW

-0.6 C

-2.3 C

-2.3 C

0.3 C

0 W/m

0.00 mm

09:45

0.7 C

1024.4 hpa

94 %

8.0 km/h aus 110

12.9 km/h aus SSW

-0.2 C

-2.0 C

-1.9 C

0.6 C

0 W/m

0.00 mm

09:50

1.3 C

1024.4 hpa

94 %

6.4 km/h aus 110

14.5 km/h aus SW

0.4 C

-0.8 C

-0.7 C

1.2 C

0 W/m

0.00 mm

09:55

1.3 C

1024.4 hpa

93 %

6.4 km/h aus 107

9.7 km/h aus S

0.3 C

-0.7 C

-0.7 C

1.3 C

0 W/m

0.00 mm

10:00

1.4 C

1024.5 hpa

92 %

9.7 km/h aus 107

16.1 km/h aus SSW

0.2 C

-1.6 C

-1.6 C

1.3 C

0 W/m

0.00 mm

10:05

1.4 C

1024.5 hpa

92 %

6.4 km/h aus 108

14.5 km/h aus SW

0.3 C

-0.6 C

-0.5 C

1.4 C

0 W/m

0.00 mm

10:10

1.6 C

1024.5 hpa

91 %

6.4 km/h aus 114

11.3 km/h aus SSW

0.2 C

-0.4 C

-0.4 C

1.5 C

0 W/m

0.00 mm

10:15

1.8 C

1024.3 hpa

91 %

6.4 km/h aus 104

9.7 km/h aus SW

0.5 C

-0.2 C

-0.1 C

1.7 C

0 W/m

0.00 mm

10:20

1.8 C

1024.3 hpa

90 %

6.4 km/h aus 112

9.7 km/h aus SSW

0.4 C

-0.1 C

-0.1 C

1.8 C

0 W/m

0.00 mm

10:25

2.0 C

1024.3 hpa

90 %

6.4 km/h aus 107

11.3 km/h aus SSW

0.5 C

0.1 C

0.1 C

1.9 C

0 W/m

0.00 mm

10:30

2.1 C

1024.4 hpa

89 %

8.0 km/h aus 109

11.3 km/h aus S

0.4 C

-0.4 C

-0.3 C

2.0 C

0 W/m

0.00 mm

10:35

2.0 C

1024.4 hpa

89 %

8.0 km/h aus 111

17.7 km/h aus SSW

0.4 C

-0.4 C

-0.4 C

1.9 C

0 W/m

0.00 mm

10:40

1.9 C

1024.4 hpa

89 %

9.7 km/h aus 104

14.5 km/h aus SW

0.3 C

-0.9 C

-0.9 C

1.9 C

0 W/m

0.00 mm

10:45

2.1 C

1024.1 hpa

89 %

9.7 km/h aus 115

16.1 km/h aus SSW

0.5 C

-0.7 C

-0.7 C

2.1 C

0 W/m

0.00 mm

10:50

2.0 C

1024.1 hpa

89 %

9.7 km/h aus 113

17.7 km/h aus SSW

0.4 C

-0.9 C

-0.8 C

1.9 C

0 W/m

0.00 mm

10:55

2.0 C

1024.1 hpa

89 %

9.7 km/h aus 111

14.5 km/h aus SW

0.4 C

-0.9 C

-0.8 C

1.9 C

0 W/m

0.00 mm

11:00

1.8 C

1024.0 hpa

89 %

9.7 km/h aus 110

17.7 km/h aus SSW

0.2 C

-1.1 C

-1.0 C

1.8 C

0 W/m

0.00 mm

11:05

1.9 C

1024.0 hpa

90 %

11.3 km/h aus 107

17.7 km/h aus SSW

0.4 C

-1.4 C

-1.3 C

1.8 C

0 W/m

0.00 mm

11:10

1.8 C

1024.0 hpa

90 %

9.7 km/h aus 114

16.1 km/h aus SSW

0.4 C

-1.1 C

-1.0 C

1.8 C

0 W/m

0.00 mm

11:15

1.8 C

1023.9 hpa

90 %

9.7 km/h aus 111

19.3 km/h aus SSW

0.4 C

-1.1 C

-1.0 C

1.8 C

0 W/m

0.00 mm

11:20

2.0 C

1023.9 hpa

90 %

9.7 km/h aus 110

19.3 km/h aus SSW

0.5 C

-0.9 C

-0.8 C

1.9 C

0 W/m

0.00 mm

11:25

2.2 C

1023.9 hpa

90 %

9.7 km/h aus 111

17.7 km/h aus SW

0.7 C

-0.7 C

-0.6 C

2.1 C

0 W/m

0.00 mm

11:30

2.1 C

1023.9 hpa

90 %

11.3 km/h aus 109

20.9 km/h aus SSW

0.6 C

-1.1 C

-1.1 C

2.1 C

0 W/m

0.00 mm

11:35

2.1 C

1023.9 hpa

90 %

12.9 km/h aus 116

20.9 km/h aus SSW

0.6 C

-1.4 C

-1.4 C

2.1 C

0 W/m

0.00 mm

11:40

2.3 C

1023.9 hpa

90 %

12.9 km/h aus 113

20.9 km/h aus SW

0.8 C

-1.3 C

-1.2 C

2.2 C

0 W/m

0.00 mm

11:45

2.4 C

1023.8 hpa

90 %

11.3 km/h aus 113

19.3 km/h aus SSW

1.0 C

-0.7 C

-0.7 C

2.4 C

0 W/m

0.00 mm

11:50

2.6 C

1023.8 hpa

89 %

11.3 km/h aus 114

17.7 km/h aus SW

1.0 C

-0.5 C

-0.4 C

2.6 C

0 W/m

0.00 mm

11:55

2.6 C

1023.8 hpa

89 %

11.3 km/h aus 113

16.1 km/h aus SSW

1.0 C

-0.5 C

-0.4 C

2.6 C

0 W/m

0.00 mm

12:00

2.4 C

1023.6 hpa

90 %

9.7 km/h aus 115

17.7 km/h aus SW

1.0 C

-0.3 C

-0.3 C

2.4 C

0 W/m

0.00 mm

12:05

2.6 C

1023.6 hpa

90 %

12.9 km/h aus 110

20.9 km/h aus SSW

1.1 C

-0.9 C

-0.9 C

2.5 C

0 W/m

0.00 mm

12:10

2.7 C

1023.6 hpa

90 %

11.3 km/h aus 113

19.3 km/h aus SW

1.2 C

-0.4 C

-0.4 C

2.6 C

0 W/m

0.00 mm

12:15

2.8 C

1023.5 hpa

90 %

14.5 km/h aus 107

20.9 km/h aus SW

1.3 C

-0.9 C

-0.9 C

2.7 C

0 W/m

0.00 mm

12:20

3.0 C

1023.5 hpa

90 %

11.3 km/h aus 112

22.5 km/h aus SSW

1.5 C

-0.1 C

0.0 C

2.9 C

0 W/m

0.00 mm

12:25

3.0 C

1023.5 hpa

90 %

12.9 km/h aus 114

22.5 km/h aus SSW

1.5 C

-0.4 C

-0.3 C

2.9 C

0 W/m

0.00 mm

12:30

3.2 C

1023.5 hpa

90 %

11.3 km/h aus 111

17.7 km/h aus S

1.7 C

0.2 C

0.2 C

3.1 C

0 W/m

0.00 mm

12:35

3.1 C

1023.5 hpa

90 %

14.5 km/h aus 113

20.9 km/h aus SSW

1.6 C

-0.6 C

-0.5 C

3.1 C

0 W/m

0.00 mm

12:40

3.3 C

1023.5 hpa

89 %

11.3 km/h aus 106

20.9 km/h aus SW

1.6 C

0.3 C

0.3 C

3.2 C

0 W/m

0.00 mm

12:45

3.4 C

1023.5 hpa

89 %

11.3 km/h aus 112

22.5 km/h aus SW

1.8 C

0.5 C

0.6 C

3.4 C

0 W/m

0.00 mm

12:50

3.6 C

1023.5 hpa

88 %

14.5 km/h aus 110

22.5 km/h aus SSW

1.8 C

0.1 C

0.1 C

3.6 C

0 W/m

0.00 mm

12:55

3.8 C

1023.5 hpa

87 %

12.9 km/h aus 108

20.9 km/h aus SW

1.8 C

0.5 C

0.6 C

3.7 C

0 W/m

0.00 mm

13:00

3.7 C

1023.4 hpa

87 %

12.9 km/h aus 109

19.3 km/h aus SW

1.7 C

0.4 C

0.5 C

3.6 C

0 W/m

0.00 mm

13:05

3.7 C

1023.4 hpa

88 %

11.3 km/h aus 106

20.9 km/h aus SW

1.9 C

0.8 C

0.9 C

3.7 C

0 W/m

0.00 mm

13:10

3.6 C

1023.4 hpa

89 %

12.9 km/h aus 115

22.5 km/h aus SSW

1.9 C

0.3 C

0.3 C

3.5 C

0 W/m

0.00 mm

13:15

3.5 C

1023.3 hpa

89 %

11.3 km/h aus 107

19.3 km/h aus SSW

1.9 C

0.6 C

0.6 C

3.4 C

0 W/m

0.00 mm

13:20

3.6 C

1023.3 hpa

89 %

12.9 km/h aus 105

22.5 km/h aus SSW

1.9 C

0.3 C

0.3 C

3.5 C

0 W/m

0.00 mm

13:25

3.7 C

1023.3 hpa

89 %

12.9 km/h aus 111

25.7 km/h aus SSW

2.0 C

0.4 C

0.5 C

3.6 C

0 W/m

0.00 mm

13:30

3.7 C

1022.9 hpa

88 %

14.5 km/h aus 112

24.1 km/h aus SW

1.9 C

0.2 C

0.2 C

3.6 C

0 W/m

0.00 mm

13:35

3.8 C

1022.9 hpa

89 %

12.9 km/h aus 115

20.9 km/h aus SSW

2.1 C

0.6 C

0.6 C

3.7 C

0 W/m

0.00 mm

13:40

3.9 C

1022.9 hpa

89 %

11.3 km/h aus 110

20.9 km/h aus SSW

2.3 C

1.1 C

1.2 C

3.9 C

0 W/m

0.00 mm

13:45

4.0 C

1022.7 hpa

87 %

11.3 km/h aus 110

17.7 km/h aus SSW

2.0 C

1.1 C

1.2 C

3.9 C

0 W/m

0.00 mm

13:50

4.2 C

1022.7 hpa

86 %

12.9 km/h aus 115

19.3 km/h aus SW

2.0 C

1.0 C

1.1 C

4.1 C

0 W/m

0.00 mm

13:55

4.3 C

1022.7 hpa

86 %

11.3 km/h aus 111

22.5 km/h aus SW

2.2 C

1.5 C

1.6 C

4.2 C

0 W/m

0.00 mm

14:00

4.4 C

1022.3 hpa

85 %

11.3 km/h aus 112

20.9 km/h aus SSW

2.1 C

1.6 C

1.7 C

4.3 C

0 W/m

0.00 mm

14:05

4.6 C

1022.3 hpa

84 %

11.3 km/h aus 113

19.3 km/h aus SSW

2.1 C

1.8 C

1.9 C

4.5 C

0 W/m

0.00 mm

14:10

4.7 C

1022.3 hpa

82 %

11.3 km/h aus 113

19.3 km/h aus SW

1.9 C

1.8 C

2.0 C

4.5 C

0 W/m

0.00 mm

14:15

4.7 C

1022.1 hpa

82 %

8.0 km/h aus 110

17.7 km/h aus SW

1.9 C

2.7 C

2.8 C

4.6 C

0 W/m

0.00 mm

14:20

4.8 C

1022.1 hpa

82 %

9.7 km/h aus 113

17.7 km/h aus SSW

2.0 C

2.3 C

2.5 C

4.6 C

0 W/m

0.00 mm

14:25

4.8 C

1022.1 hpa

82 %

9.7 km/h aus 110

17.7 km/h aus SW

2.0 C

2.3 C

2.5 C

4.6 C

0 W/m

0.00 mm

14:30

4.8 C

1021.9 hpa

81 %

11.3 km/h aus 112

17.7 km/h aus SSW

1.8 C

1.9 C

2.1 C

4.6 C

0 W/m

0.00 mm

14:35

4.8 C

1021.9 hpa

82 %

9.7 km/h aus 116

17.7 km/h aus SW

2.0 C

2.4 C

2.6 C

4.7 C

0 W/m

0.00 mm

14:40

4.8 C

1021.9 hpa

81 %

11.3 km/h aus 111

19.3 km/h aus SSW

1.8 C

1.9 C

2.1 C

4.6 C

0 W/m

0.00 mm

14:45

4.7 C

1021.8 hpa

81 %

11.3 km/h aus 113

20.9 km/h aus SSW

1.7 C

1.9 C

2.1 C

4.6 C

0 W/m

0.00 mm

14:50

4.7 C

1021.8 hpa

81 %

9.7 km/h aus 115

19.3 km/h aus SSW

1.7 C

2.2 C

2.4 C

4.6 C

0 W/m

0.00 mm

14:55

4.7 C

1021.8 hpa

81 %

8.0 km/h aus 111

14.5 km/h aus S

1.7 C

2.6 C

2.7 C

4.5 C

0 W/m

0.00 mm

15:00

4.6 C

1021.4 hpa

82 %

9.7 km/h aus 114

16.1 km/h aus SW

1.8 C

2.1 C

2.3 C

4.4 C

0 W/m

0.00 mm

15:05

4.5 C

1021.4 hpa

83 %

9.7 km/h aus 110

16.1 km/h aus SSW

1.9 C

2.1 C

2.2 C

4.4 C

0 W/m

0.00 mm

15:10

4.5 C

1021.4 hpa

84 %

12.9 km/h aus 101

19.3 km/h aus SSW

2.0 C

1.4 C

1.5 C

4.4 C

0 W/m

0.00 mm

15:15

4.5 C

1021.4 hpa

84 %

11.3 km/h aus 111

17.7 km/h aus SSW

2.0 C

1.7 C

1.8 C

4.4 C

0 W/m

0.00 mm

15:20

4.6 C

1021.4 hpa

84 %

11.3 km/h aus 110

19.3 km/h aus SSW

2.1 C

1.7 C

1.8 C

4.4 C

0 W/m

0.00 mm

15:25

4.6 C

1021.4 hpa

83 %

9.7 km/h aus 105

19.3 km/h aus SSW

2.0 C

2.2 C

2.3 C

4.5 C

0 W/m

0.00 mm

15:30

4.6 C

1021.0 hpa

83 %

12.9 km/h aus 110

19.3 km/h aus S

1.9 C

1.4 C

1.6 C

4.4 C

0 W/m

0.00 mm

15:35

4.5 C

1021.0 hpa

84 %

12.9 km/h aus 113

19.3 km/h aus SSW

2.0 C

1.4 C

1.5 C

4.4 C

0 W/m

0.00 mm

15:40

4.4 C

1021.0 hpa

83 %

14.5 km/h aus 109

19.3 km/h aus S

1.8 C

1.1 C

1.2 C

4.3 C

0 W/m

0.00 mm

15:45

4.5 C

1020.8 hpa

82 %

12.9 km/h aus 115

20.9 km/h aus SSW

1.7 C

1.3 C

1.5 C

4.3 C

0 W/m

0.00 mm

15:50

4.4 C

1020.8 hpa

82 %

12.9 km/h aus 106

17.7 km/h aus SSW

1.6 C

1.3 C

1.4 C

4.3 C

0 W/m

0.00 mm

15:55

4.3 C

1020.8 hpa

82 %

11.3 km/h aus 113

20.9 km/h aus SSW

1.5 C

1.4 C

1.6 C

4.1 C

0 W/m

0.00 mm

16:00

4.1 C

1020.6 hpa

82 %

14.5 km/h aus 112

19.3 km/h aus S

1.3 C

0.6 C

0.8 C

3.9 C

0 W/m

0.00 mm

16:05

4.1 C

1020.6 hpa

81 %

16.1 km/h aus 111

27.4 km/h aus SSW

1.1 C

0.3 C

0.5 C

3.9 C

0 W/m

0.00 mm

16:10

4.1 C

1020.6 hpa

81 %

12.9 km/h aus 110

17.7 km/h aus S

1.1 C

0.8 C

0.9 C

3.9 C

0 W/m

0.00 mm

16:15

4.0 C

1020.4 hpa

81 %

12.9 km/h aus 114

20.9 km/h aus SSW

1.0 C

0.7 C

0.9 C

3.8 C

0 W/m

0.00 mm

16:20

3.9 C

1020.4 hpa

81 %

12.9 km/h aus 113

20.9 km/h aus S

1.0 C

0.7 C

0.8 C

3.8 C

0 W/m

0.00 mm

16:25

3.9 C

1020.4 hpa

81 %

11.3 km/h aus 109

17.7 km/h aus SSW

0.9 C

0.9 C

1.1 C

3.7 C

0 W/m

0.00 mm

16:30

3.8 C

1020.2 hpa

82 %

12.9 km/h aus 115

19.3 km/h aus SSW

1.0 C

0.4 C

0.6 C

3.6 C

0 W/m

0.00 mm

16:35

3.7 C

1020.2 hpa

83 %

12.9 km/h aus 107

19.3 km/h aus S

1.0 C

0.4 C

0.5 C

3.6 C

0 W/m

0.00 mm

16:40

3.6 C

1020.2 hpa

83 %

11.3 km/h aus 105

17.7 km/h aus SSW

1.0 C

0.6 C

0.7 C

3.5 C

0 W/m

0.00 mm

16:45

3.6 C

1019.9 hpa

83 %

12.9 km/h aus 111

22.5 km/h aus S

0.9 C

0.2 C

0.3 C

3.4 C

0 W/m

0.00 mm

16:50

3.6 C

1019.9 hpa

83 %

12.9 km/h aus 112

17.7 km/h aus SSW

0.9 C

0.2 C

0.3 C

3.4 C

0 W/m

0.00 mm

16:55

3.5 C

1019.9 hpa

84 %

12.9 km/h aus 111

20.9 km/h aus SSW

1.0 C

0.2 C

0.3 C

3.4 C

0 W/m

0.00 mm

17:00

3.7 C

1019.7 hpa

84 %

12.9 km/h aus 108

19.3 km/h aus SSW

1.2 C

0.4 C

0.5 C

3.6 C

0 W/m

0.00 mm

17:05

3.7 C

1019.7 hpa

83 %

14.5 km/h aus 112

20.9 km/h aus SSW

1.1 C

0.2 C

0.3 C

3.6 C

0 W/m

0.00 mm

17:10

3.7 C

1019.7 hpa

83 %

16.1 km/h aus 114

20.9 km/h aus SSW

1.1 C

-0.1 C

0.0 C

3.6 C

0 W/m

0.00 mm

17:15

3.8 C

1019.3 hpa

83 %

12.9 km/h aus 113

22.5 km/h aus SSW

1.2 C

0.5 C

0.6 C

3.7 C

0 W/m

0.00 mm

17:20

3.8 C

1019.3 hpa

83 %

14.5 km/h aus 108

22.5 km/h aus SSW

1.2 C

0.2 C

0.3 C

3.7 C

0 W/m

0.00 mm

17:25

3.9 C

1019.3 hpa

82 %

12.9 km/h aus 108

22.5 km/h aus SW

1.1 C

0.6 C

0.8 C

3.7 C

0 W/m

0.00 mm

17:30

3.9 C

1019.2 hpa

82 %

12.9 km/h aus 113

22.5 km/h aus SSW

1.1 C

0.6 C

0.8 C

3.7 C

0 W/m

0.00 mm

17:35

4.0 C

1019.2 hpa

82 %

14.5 km/h aus 110

25.7 km/h aus SW

1.2 C

0.4 C

0.6 C

3.8 C

0 W/m

0.00 mm

17:40

4.0 C

1019.2 hpa

82 %

14.5 km/h aus 114

25.7 km/h aus SSW

1.2 C

0.4 C

0.6 C

3.8 C

0 W/m

0.00 mm

17:45

3.9 C

1019.0 hpa

82 %

14.5 km/h aus 116

22.5 km/h aus SW

1.1 C

0.4 C

0.6 C

3.8 C

0 W/m

0.00 mm

17:50

3.9 C

1019.0 hpa

83 %

16.1 km/h aus 114

24.1 km/h aus SSW

1.3 C

0.1 C

0.2 C

3.8 C

0 W/m

0.00 mm

17:55

3.8 C

1019.0 hpa

83 %

19.3 km/h aus 108

32.2 km/h aus SSW

1.2 C

-0.4 C

-0.3 C

3.7 C

0 W/m

0.00 mm

18:00

3.8 C

1018.8 hpa

83 %

14.5 km/h aus 109

22.5 km/h aus SSW

1.2 C

0.3 C

0.4 C

3.7 C

0 W/m

0.00 mm

18:05

3.8 C

1018.8 hpa

83 %

14.5 km/h aus 111

20.9 km/h aus SSW

1.2 C

0.3 C

0.4 C

3.7 C

0 W/m

0.00 mm

18:10

3.8 C

1018.8 hpa

83 %

12.9 km/h aus 113

25.7 km/h aus SSW

1.2 C

0.6 C

0.7 C

3.7 C

0 W/m

0.00 mm

18:15

4.0 C

1018.5 hpa

82 %

20.9 km/h aus 115

35.4 km/h aus S

1.2 C

-0.4 C

-0.3 C

3.8 C

0 W/m

0.00 mm

18:20

4.1 C

1018.5 hpa

81 %

19.3 km/h aus 113

35.4 km/h aus SSW

1.1 C

-0.1 C

0.1 C

3.9 C

0 W/m

0.00 mm

18:25

4.1 C

1018.5 hpa

80 %

20.9 km/h aus 110

35.4 km/h aus SSW

1.0 C

-0.3 C

-0.2 C

3.9 C

0 W/m

0.00 mm

18:30

4.0 C

1018.3 hpa

80 %

24.1 km/h aus 109

32.2 km/h aus SSW

0.9 C

-0.8 C

-0.7 C

3.8 C

0 W/m

0.00 mm

18:35

4.1 C

1018.3 hpa

80 %

19.3 km/h aus 111

33.8 km/h aus SW

1.0 C

-0.1 C

0.1 C

3.9 C

0 W/m

0.00 mm

18:40

4.2 C

1018.3 hpa

79 %

20.9 km/h aus 112

30.6 km/h aus SSW

0.8 C

-0.2 C

-0.1 C

4.0 C

0 W/m

0.00 mm

18:45

4.1 C

1018.2 hpa

79 %

19.3 km/h aus 110

33.8 km/h aus SSW

0.8 C

-0.1 C

0.1 C

3.9 C

0 W/m

0.00 mm

18:50

4.2 C

1018.2 hpa

78 %

22.5 km/h aus 115

35.4 km/h aus SSW

0.7 C

-0.5 C

-0.3 C

3.9 C

0 W/m

0.00 mm

18:55

4.2 C

1018.2 hpa

77 %

19.3 km/h aus 111

27.4 km/h aus SSW

0.5 C

-0.1 C

0.2 C

4.0 C

0 W/m

0.00 mm

19:00

4.3 C

1018.3 hpa

76 %

19.3 km/h aus 110

29.0 km/h aus SSW

0.4 C

0.1 C

0.3 C

4.1 C

0 W/m

0.00 mm

19:05

4.3 C

1018.3 hpa

76 %

22.5 km/h aus 113

41.8 km/h aus SSW

0.5 C

-0.3 C

-0.1 C

4.1 C

0 W/m

0.00 mm

19:10

4.4 C

1018.3 hpa

75 %

19.3 km/h aus 111

30.6 km/h aus SSW

0.3 C

0.1 C

0.4 C

4.1 C

0 W/m

0.00 mm

19:15

4.5 C

1018.2 hpa

74 %

19.3 km/h aus 114

38.6 km/h aus SW

0.3 C

0.2 C

0.5 C

4.2 C

0 W/m

0.00 mm

19:20

4.4 C

1018.2 hpa

75 %

22.5 km/h aus 111

33.8 km/h aus WSW

0.3 C

-0.3 C

0.0 C

4.1 C

0 W/m

0.00 mm

19:25

4.2 C

1018.2 hpa

76 %

17.7 km/h aus 113

25.7 km/h aus S

0.4 C

0.2 C

0.4 C

4.0 C

0 W/m

0.00 mm

19:30

4.1 C

1018.0 hpa

77 %

19.3 km/h aus 111

29.0 km/h aus S

0.4 C

-0.2 C

0.1 C

3.9 C

0 W/m

0.00 mm

19:35

4.1 C

1018.0 hpa

77 %

17.7 km/h aus 111

32.2 km/h aus SSW

0.4 C

0.1 C

0.3 C

3.9 C

0 W/m

0.00 mm

19:40

4.1 C

1018.0 hpa

77 %

17.7 km/h aus 112

30.6 km/h aus SSW

0.4 C

0.0 C

0.2 C

3.8 C

0 W/m

0.00 mm

19:45

4.1 C

1017.8 hpa

77 %

20.9 km/h aus 114

35.4 km/h aus S

0.4 C

-0.4 C

-0.2 C

3.9 C

0 W/m

0.00 mm

19:50

4.2 C

1017.8 hpa

76 %

17.7 km/h aus 111

27.4 km/h aus SW

0.3 C

0.1 C

0.3 C

3.9 C

0 W/m

0.00 mm

19:55

4.2 C

1017.8 hpa

76 %

19.3 km/h aus 115

30.6 km/h aus SSW

0.4 C

-0.1 C

0.2 C

4.0 C

0 W/m

0.00 mm

20:00

4.3 C

1017.7 hpa

75 %

14.5 km/h aus 112

30.6 km/h aus SSW

0.2 C

0.7 C

0.9 C

4.0 C

0 W/m

0.00 mm

20:05

4.3 C

1017.7 hpa

75 %

17.7 km/h aus 114

32.2 km/h aus SSW

0.3 C

0.3 C

0.6 C

4.1 C

0 W/m

0.00 mm

20:10

4.4 C

1017.7 hpa

74 %

16.1 km/h aus 109

30.6 km/h aus SSW

0.2 C

0.6 C

0.8 C

4.1 C

0 W/m

0.00 mm

20:15

4.3 C

1017.3 hpa

75 %

16.1 km/h aus 111

27.4 km/h aus SSW

0.2 C

0.4 C

0.7 C

4.0 C

0 W/m

0.00 mm

20:20

4.3 C

1017.3 hpa

75 %

14.5 km/h aus 106

32.2 km/h aus SSW

0.2 C

0.7 C

0.9 C

4.0 C

0 W/m

0.00 mm

20:25

4.3 C

1017.3 hpa

75 %

17.7 km/h aus 112

30.6 km/h aus SW

0.3 C

0.3 C

0.6 C

4.1 C

0 W/m

0.00 mm

20:30

4.3 C

1017.0 hpa

74 %

20.9 km/h aus 113

38.6 km/h aus SSW

0.1 C

-0.2 C

0.1 C

4.1 C

0 W/m

0.00 mm

20:35

4.4 C

1017.0 hpa

75 %

20.9 km/h aus 116

37.0 km/h aus SSW

0.3 C

-0.1 C

0.2 C

4.1 C

0 W/m

0.00 mm

20:40

4.3 C

1017.0 hpa

75 %

25.7 km/h aus 112

40.2 km/h aus S

0.3 C

-0.7 C

-0.4 C

4.1 C

0 W/m

0.00 mm

20:45

4.3 C

1016.7 hpa

75 %

20.9 km/h aus 109

32.2 km/h aus SSW

0.2 C

-0.2 C

0.1 C

4.0 C

0 W/m

0.00 mm

20:50

4.3 C

1016.7 hpa

75 %

24.1 km/h aus 112

43.5 km/h aus SSW

0.2 C

-0.6 C

-0.3 C

4.0 C

0 W/m

0.00 mm

20:55

4.4 C

1016.7 hpa

75 %

20.9 km/h aus 108

40.2 km/h aus SSW

0.3 C

-0.1 C

0.2 C

4.1 C

0 W/m

0.00 mm

21:00

4.4 C

1016.6 hpa

74 %

17.7 km/h aus 110

32.2 km/h aus SW

0.2 C

0.4 C

0.7 C

4.2 C

0 W/m

0.00 mm

21:05

4.4 C

1016.6 hpa

74 %

20.9 km/h aus 113

38.6 km/h aus S

0.2 C

0.0 C

0.3 C

4.2 C

0 W/m

0.00 mm

21:10

4.6 C

1016.6 hpa

74 %

20.9 km/h aus 111

43.5 km/h aus SSW

0.3 C

0.1 C

0.4 C

4.3 C

0 W/m

0.00 mm

21:15

4.6 C

1016.2 hpa

74 %

22.5 km/h aus 112

38.6 km/h aus SSW

0.4 C

0.0 C

0.3 C

4.3 C

0 W/m

0.00 mm

21:20

4.6 C

1016.2 hpa

74 %

19.3 km/h aus 111

32.2 km/h aus SW

0.4 C

0.4 C

0.7 C

4.3 C

0 W/m

0.00 mm

21:25

4.6 C

1016.2 hpa

74 %

20.9 km/h aus 110

37.0 km/h aus SSW

0.4 C

0.2 C

0.4 C

4.3 C

0 W/m

0.00 mm

21:30

4.7 C

1015.7 hpa

74 %

22.5 km/h aus 114

40.2 km/h aus SW

0.4 C

0.1 C

0.3 C

4.4 C

0 W/m

0.00 mm

21:35

4.7 C

1015.7 hpa

74 %

17.7 km/h aus 107

35.4 km/h aus SW

0.4 C

0.7 C

0.9 C

4.4 C

0 W/m

0.00 mm

21:40

4.6 C

1015.7 hpa

75 %

17.7 km/h aus 112

27.4 km/h aus SSW

0.5 C

0.5 C

0.8 C

4.3 C

0 W/m

0.00 mm

21:45

4.6 C

1015.1 hpa

75 %

25.7 km/h aus 111

37.0 km/h aus SW

0.5 C

-0.4 C

-0.2 C

4.3 C

0 W/m

0.00 mm

21:50

4.6 C

1015.1 hpa

75 %

24.1 km/h aus 108

43.5 km/h aus SW

0.6 C

-0.2 C

0.1 C

4.3 C

0 W/m

0.00 mm

21:55

4.6 C

1015.1 hpa

76 %

20.9 km/h aus 110

41.8 km/h aus S

0.7 C

0.2 C

0.4 C

4.3 C

0 W/m

0.00 mm

22:00

4.6 C

1014.6 hpa

75 %

25.7 km/h aus 110

41.8 km/h aus SW

0.6 C

-0.3 C

-0.1 C

4.3 C

0 W/m

0.00 mm

22:05

4.6 C

1014.6 hpa

75 %

24.1 km/h aus 110

38.6 km/h aus SSW

0.6 C

-0.2 C

0.1 C

4.3 C

0 W/m

0.00 mm

22:10

4.6 C

1014.6 hpa

75 %

25.7 km/h aus 109

40.2 km/h aus SSW

0.6 C

-0.3 C

-0.1 C

4.3 C

0 W/m

0.00 mm

22:15

4.7 C

1014.5 hpa

74 %

25.7 km/h aus 113

45.1 km/h aus SSW

0.4 C

-0.3 C

0.0 C

4.4 C

0 W/m

0.00 mm

22:20

4.7 C

1014.5 hpa

75 %

22.5 km/h aus 109

41.8 km/h aus SSW

0.6 C

0.1 C

0.3 C

4.4 C

0 W/m

0.00 mm

22:25

4.7 C

1014.5 hpa

75 %

20.9 km/h aus 106

37.0 km/h aus S

0.6 C

0.2 C

0.5 C

4.4 C

0 W/m

0.00 mm

22:30

4.7 C

1014.3 hpa

75 %

24.1 km/h aus 107

41.8 km/h aus SSW

0.7 C

-0.1 C

0.2 C

4.4 C

0 W/m

0.00 mm

22:35

4.8 C

1014.3 hpa

74 %

22.5 km/h aus 107

43.5 km/h aus WSW

0.5 C

0.2 C

0.5 C

4.5 C

0 W/m

0.00 mm

22:40

4.8 C

1014.3 hpa

74 %

27.4 km/h aus 107

48.3 km/h aus SSW

0.6 C

-0.2 C

0.1 C

4.6 C

0 W/m

0.00 mm

22:45

4.9 C

1014.4 hpa

74 %

22.5 km/h aus 116

35.4 km/h aus SW

0.6 C

0.3 C

0.6 C

4.6 C

0 W/m

0.00 mm

22:50

4.9 C

1014.4 hpa

74 %

20.9 km/h aus 114

35.4 km/h aus S

0.6 C

0.5 C

0.8 C

4.6 C

0 W/m

0.00 mm

22:55

4.8 C

1014.4 hpa

75 %

24.1 km/h aus 112

38.6 km/h aus SW

0.8 C

0.1 C

0.3 C

4.6 C

0 W/m

0.00 mm

23:00

4.9 C

1013.9 hpa

74 %

24.1 km/h aus 110

40.2 km/h aus SW

0.7 C

0.3 C

0.5 C

4.7 C

0 W/m

0.00 mm

23:05

5.0 C

1013.9 hpa

74 %

24.1 km/h aus 113

41.8 km/h aus SSW

0.7 C

0.3 C

0.6 C

4.8 C

0 W/m

0.00 mm

23:10

5.0 C

1013.9 hpa

74 %

24.1 km/h aus 110

43.5 km/h aus SW

0.7 C

0.3 C

0.6 C

4.8 C

0 W/m

0.00 mm

23:15

5.0 C

1013.7 hpa

74 %

22.5 km/h aus 114

37.0 km/h aus SW

0.7 C

0.5 C

0.7 C

4.8 C

0 W/m

0.00 mm

23:20

5.0 C

1013.7 hpa

74 %

22.5 km/h aus 112

38.6 km/h aus SSW

0.7 C

0.5 C

0.7 C

4.8 C

0 W/m

0.00 mm

23:25

5.0 C

1013.7 hpa

74 %

24.1 km/h aus 111

40.2 km/h aus SSW

0.7 C

0.3 C

0.6 C

4.8 C

0 W/m

0.00 mm

23:30

5.0 C

1013.5 hpa

75 %

25.7 km/h aus 111

46.7 km/h aus SW

0.9 C

0.2 C

0.4 C

4.8 C

0 W/m

0.00 mm

23:35

4.9 C

1013.5 hpa

76 %

20.9 km/h aus 112

30.6 km/h aus SW

1.0 C

0.6 C

0.8 C

4.7 C

0 W/m

0.00 mm

23:40

4.8 C

1013.5 hpa

77 %

24.1 km/h aus 112

38.6 km/h aus SW

1.1 C

0.1 C

0.3 C

4.6 C

0 W/m

0.00 mm

23:45

4.7 C

1013.1 hpa

79 %

22.5 km/h aus 109

43.5 km/h aus WSW

1.3 C

0.2 C

0.3 C

4.5 C

0 W/m

0.00 mm

23:50

4.5 C

1013.1 hpa

81 %

24.1 km/h aus 112

35.4 km/h aus SW

1.5 C

-0.2 C

-0.1 C

4.3 C

0 W/m

0.00 mm

23:55

4.3 C

1013.1 hpa

82 %

24.1 km/h aus 112

43.5 km/h aus SSW

1.5 C

-0.4 C

-0.2 C

4.2 C

0 W/m

0.00 mm